GAOFEN 6 (43484 NORAD) Tracking and Keplerian Element Data

This shows tracking and keplerian element data for the satellite.

Feedback or suggestion? Click here.




ElementValue
Catalog43484
NameGAOFEN 6
Epoch Orbit428
Epoch Day182.22255154
Epoch Year2018
RAAN257.1802
Inclination98.0514
Eccentricity0.0010306
Argument of Perigee176.2869
Mean Anonmoly183.8485
Mean Motion14.76418708
Decay Rate5.8E-07
L11 43484U 18048A 18182.22255154 .00000058 00000-0 15765-4 0 9991
L22 43484 98.0514 257.1802 0010306 176.2869 183.8485 14.76418708 4283

Live tracking and technical data element details for GAOFEN 6 (NORAD 43484). GAOFEN 6 can be tracked NOW for your location showing map with azimuth and elevation plus other details from your city location.

Track the satellite on the map from your city or location and see movement details for azimuth, elevation, latitude, longitude, range, height, and movement on the map or in text.







IsCatalogInMostPopularTable: catalog: 43484, numindb: 34
Update: records affected: 1



GetName: 43484 GAOFEN 6

Hit Count: updated at: Tue, 20 Nov 2018 07:59:16 GMT